Home > Weather > Randaberg > Past weeks

Flag for Norway Past Weather in Randaberg, Norway — Yesterday and Last 2 Weeks

Now
57 °F

Passing clouds.


Feels Like: 57 °F
Forecast: 56 / 61 °F
Wind: 1 mph from Southwest

Location: Stavanger / Sola

Current Time: Aug 29, 2016 at 9:59:11 PM

Latest Report: Aug 29, 2016 at 9:00 PM


Visibility: 3 mi

Pressure: 30.03 "Hg

Humidity: 77%

Dew Point: 50 °F

Location of RandabergLocation

Past Weather in Randaberg — Graph

°F

Randaberg Temperature Yesterday

Maximum temperature yesterday: 63 °F (at 3:00 PM)
Minimum temperature yesterday: 52 °F (at 3:00 AM)
Average temperature yesterday: 57 °F

High & Low Weather Summary for the Past Weeks

 TemperatureHumidityPressure
High70 °F (Aug 24, 3:00 PM)98% (Aug 16, 8:00 AM)30.27 "Hg (Aug 16, 8:00 AM)
Low49 °F (Aug 16, 5:00 AM)57% (Aug 20, 2:00 PM)29.68 "Hg (Aug 20, 2:00 PM)
Average60 °F85%30.02 "Hg
* Reported Aug 14 8:00 PM — Aug 29 8:00 PM, Randaberg, Weather by CustomWeather, © 2016

Note: Actual official high and low records may vary slightly from our data, if they occured in-between our weather recording intervals... More about our weather records

Advertising

Randaberg Weather History for the Previous 24 Hours

Scroll right to see more
 ConditionsComfort  
Time TempWeatherWind HumidityBarometerVisibility
8:00 PM
Mon, Aug 29
58 °FSunny.3 mph75%30.02 "Hg31 mi
7:00 PM60 °FSunny.6 mph69%30.02 "Hg19 mi
6:00 PM60 °FPassing clouds.7 mph69%30.01 "Hg22 mi
5:00 PM61 °FSunny.8 mph69%30.01 "Hg19 mi
4:00 PM61 °FPassing clouds.10 mph68%30.00 "Hg19 mi
3:00 PM61 °FPassing clouds.10 mph72%29.98 "Hg19 mi
2:00 PM62 °FPassing clouds.10 mph69%29.96 "Hg16 mi
1:00 PM61 °FPassing clouds.9 mph68%29.94 "Hg16 mi
12:00 PM62 °FPassing clouds.10 mph67%29.93 "Hg16 mi
11:00 AM60 °FPassing clouds.10 mph75%29.92 "Hg22 mi
10:00 AM60 °FScattered clouds.8 mph78%29.91 "Hg19 mi
9:00 AM59 °FPartly sunny.7 mph77%29.89 "Hg19 mi
8:00 AM58 °FOvercast.5 mph82%29.89 "Hg25 mi
7:00 AM57 °FPartly sunny.7 mph83%29.88 "Hg31 mi
6:00 AM57 °FOvercast.7 mph80%29.87 "Hg31 mi
5:00 AM57 °FPassing clouds.7 mph86%29.87 "Hg31 mi
4:00 AM56 °FPassing clouds.5 mph85%29.87 "Hg31 mi
3:00 AM56 °FOvercast.5 mph83%29.87 "Hg31 mi
2:00 AM56 °FOvercast.6 mph83%29.88 "Hg31 mi
1:00 AM56 °FOvercast.5 mph86%29.89 "Hg31 mi
12:00 AM56 °FPassing clouds.5 mph90%29.90 "Hg28 mi
11:00 PM
Sun, Aug 28
57 °FDrizzle. Overcast.5 mph92%29.90 "Hg31 mi
10:00 PM56 °FRain. Passing clouds.6 mph92%29.90 "Hg5 mi
9:00 PM57 °FRain. Dense fog.2 mph92%29.90 "Hg2 mi
Weather by CustomWeather, © 2016

See weather overviewHow to use our weather pages